Dewpoint
-1 1 1 -1 -0 1 -2 -1 -2 -4 -2 3 2 1 -0 2 4 2 4 7 4 5 6 6 6 6 6 7 2 0 2 6 7 9 8 7 6 5 6 6 5 1 -2 -3
-1 2 1 -1 0 2 1 1 -1 -2 -4 1 -0 0 0 1 3 1 1 2 3 4 5 6 6 6 7 8 7 6 6 6 8 8 6 6 6 8 8 6 2 -1 -2 -2
-0 0 -0 0 1 2 2 2 1 -0 -2 -5 -4 -2 -3 -2 2 2 0 -0 1 2 5 6 6 6 7 8 8 9 9 8 8 7 7 7 8 7 6 3 0 -1 0 0
1 0 -0 1 1 0 2 1 1 1 -3 -3 -3 1 1 -3 1 2 1 -1 -1 0 3 5 7 7 8 8 9 9 10 10 9 9 8 8 6 5 5 4 -0 2 2 3
-1 1 1 0 0 -0 2 1 1 1 1 0 1 0 -0 -1 -1 0 2 -0 -1 -0 1 3 5 6 8 8 9 10 11 11 10 9 9 7 6 5 3 1 3 3 4 3
-2 -1 -1 -1 1 0 -1 -0 3 3 3 4 2 1 1 0 -1 -2 -0 1 1 3 2 5 5 6 8 9 9 11 11 11 11 10 9 8 3 1 3 3 3 4 4 2
0 -1 -1 -0 -0 -1 -0 1 4 5 6 5 2 3 0 0 -1 -1 -1 2 2 3 5 6 7 7 8 9 11 9 10 10 9 10 8 5 4 4 4 4 4 4 3 3
2 2 -0 -0 -0 1 3 1 4 4 7 5 2 4 3 0 -0 -1 -2 -1 3 4 5 6 7 7 9 9 10 10 10 8 9 8 5 5 5 5 4 4 4 4 2 -1
2 3 4 2 1 -0 2 4 2 4 5 6 3 -1 1 1 2 3 3 1 2 6 6 6 7 9 10 9 8 9 8 9 9 5 5 5 5 4 3 3 1 -1 1 1
1 3 3 3 1 0 -1 0 4 4 1 2 1 1 5 2 2 4 4 3 6 8 8 8 9 9 9 8 8 9 8 8 7 5 4 5 5 6 5 4 3 1 2 1
2 1 2 3 3 1 -0 -0 -0 1 3 4 5 1 -3 2 1 4 4 3 6 8 8 8 8 8 8 8 8 7 6 5 5 5 5 5 5 5 2 1 2 2 1 1
1 4 5 2 1 2 2 1 2 3 0 3 4 1 -3 -1 0 0 2 5 6 6 6 6 6 6 7 7 7 6 5 5 5 5 5 5 4 3 4 3 2 2 -1 -2
1 2 5 4 2 1 2 -1 -1 3 2 2 3 2 -4 -4 -2 -2 -2 1 6 6 6 6 5 5 6 6 6 6 5 5 6 6 5 4 4 3 2 2 1 0 -3 -6
0 2 2 4 1 -1 0 -0 -1 -0 3 2 3 0 -2 -3 -4 -4 -4 -3 1 5 6 5 4 4 4 5 6 6 5 6 7 5 4 4 4 3 2 -0 -3 -5 -4 -5
0 1 0 -0 -1 -0 -1 -1 -1 -0 1 2 1 1 -1 -3 -4 -4 -5 -4 2 5 6 6 5 4 4 5 6 5 6 7 6 5 4 3 2 -0 -3 -3 -4 -3 -5 -6
1 1 -0 1 1 -0 0 -1 -1 -1 -2 -1 -1 -1 -4 -5 -5 -5 -5 -4 -2 -0 1 5 5 5 4 5 6 6 7 6 5 3 2 0 -1 -4 -2 -3 -3 -5 -8 -6
3 4 3 3 -0 0 2 -0 -1 -2 -2 -2 -2 -2 -2 -2 -2 -2 -1 -2 -1 -0 1 2 4 5 5 6 6 7 6 3 1 -1 -2 -4 -6 -4 -4 -4 -4 -4 -6 -8
4 4 2 4 1 3 1 -2 -3 -2 -3 -3 -2 -1 -1 -1 -0 -2 -2 -0 0 1 1 4 5 6 6 6 6 4 1 -1 -2 -3 -5 -6 -6 -5 -3 -2 -4 -6 -9 -7
4 4 4 3 4 2 -0 -4 -6 -3 -1 -2 -2 -1 1 0 0 1 0 -1 -1 -1 0 1 3 4 4 3 2 0 -1 -3 -5 -6 -8 -8 -3 -1 -2 -4 -6 -9 -9 -8
3 3 4 4 3 2 1 -3 -5 -4 1 -1 1 1 -1 -1 2 2 1 1 1 1 1 1 1 2 1 -1 -2 -3 -5 -6 -7 -8 -5 -4 -1 -5 -10 -11 -12 -9 -8 -8
3 4 3 1 2 1 -0 -2 -4 -3 -2 -0 1 1 1 3 2 0 1 0 0 -0 -0 -1 -1 -2 -3 -4 -5 -5 -6 -6 -3 -1 0 -4 -5 -7 -10 -13 -11 -10 -11 -10
3 4 3 4 3 3 0 -2 -2 -1 1 1 1 1 2 3 1 -0 -0 -1 -1 -2 -3 -3 -4 -4 -5 -5 -5 -5 -3 -1 0 -2 -5 -6 -9 -11 -14 -14 -13 -13 -12 -10
4 2 4 4 3 2 1 1 1 0 1 2 1 2 2 2 -0 -2 -2 -3 -3 -4 -4 -4 -4 -5 -5 -4 -3 -2 -2 -3 -5 -11 -13 -16 -17 -17 -16 -15 -14 -13 -11 -10
2 4 4 3 4 4 3 3 2 1 1 2 2 2 2 1 -1 -2 -3 -4 -4 -4 -4 -4 -3 -2 -3 -5 -8 -10 -12 -14 -15 -16 -15 -14 -13 -12 -12 -11 -11 -11 -10 -10
3 1 3 5 4 3 4 3 3 2 2 2 2 1 1 1 -2 -3 -3 -4 -3 -2 -2 -3 -6 -7 -8 -9 -10 -10 -10 -10 -10 -9 -8 -8 -8 -8 -8 -7 -7 -7 -8 -7
1 2 2 4 4 2 3 2 2 2 1 1 0 -0 -1 -2 -3 -3 -3 -2 -2 -4 -6 -7 -9 -9 -10 -9 -9 -8 -8 -8 -7 -7 -7 -8 -9 -10 -9 -7 -6 -6 -6 -6
Wind_Speed
1 4 2 3 3 7 8 12 6 6 11 7 12 6 7 16 23 24 29 36 39 42 39 41 41 36 32 31 29 30 30 29 26 26 24 24 22 17 14 12 11 13 11 9
4 4 7 4 3 4 8 9 7 9 4 15 5 11 5 10 18 30 33 36 37 36 36 41 41 39 35 31 29 26 26 24 25 25 24 22 19 16 13 13 15 13 10 7
6 7 3 3 4 6 5 5 6 7 4 6 5 2 5 3 10 19 25 40 43 44 43 43 42 40 37 35 30 25 25 24 25 25 24 21 18 15 18 18 16 13 11 8
5 0 4 3 1 2 12 9 12 5 0 1 2 3 2 8 12 11 24 27 36 40 43 41 44 42 40 36 31 26 25 23 22 26 25 22 22 24 21 16 14 13 12 9
5 5 5 3 6 8 11 3 2 7 3 3 3 3 6 4 7 9 22 33 42 44 47 43 43 39 40 36 33 30 27 24 21 26 25 18 18 17 15 17 17 15 11 8
3 3 5 5 2 4 4 4 6 6 4 2 4 5 5 6 11 15 16 35 36 40 42 41 40 35 31 28 27 30 25 21 22 28 23 19 17 18 20 22 21 17 14 11
3 3 1 2 6 6 3 5 2 3 3 5 6 4 9 4 7 8 10 16 30 37 43 40 38 34 32 32 34 27 22 22 26 24 23 21 18 19 20 22 23 21 20 19
5 4 2 2 3 2 4 3 5 3 3 4 4 4 6 7 12 13 18 18 13 31 40 41 38 33 32 27 28 23 23 27 24 25 23 23 24 22 21 20 22 22 18 12
4 3 5 4 4 6 3 2 6 5 1 3 3 4 6 6 7 9 7 11 15 24 37 39 37 34 26 24 24 26 26 25 24 25 26 27 21 21 19 20 18 17 8 7
7 1 3 5 2 5 6 5 2 3 2 3 4 4 5 2 2 1 4 13 17 25 29 30 30 27 24 24 27 25 22 24 28 31 26 25 23 22 23 25 25 20 16 15
6 4 5 2 5 8 1 2 1 4 5 4 1 5 5 8 8 10 11 18 24 28 28 27 26 25 25 26 25 23 26 26 30 28 28 28 25 26 24 19 12 11 8 15
7 5 4 9 2 4 4 5 5 5 4 1 4 5 4 9 10 14 18 23 31 30 28 27 27 28 30 30 29 28 32 33 33 33 34 33 29 25 24 22 14 15 11 9
8 1 2 7 6 4 3 5 5 4 4 6 5 6 3 3 5 16 15 22 31 34 33 33 34 34 36 37 34 37 37 35 34 35 34 30 25 22 17 16 12 10 8 9
8 5 7 8 7 4 3 4 4 6 3 4 6 6 6 8 8 11 13 12 25 34 36 36 36 38 39 40 41 39 32 32 29 31 26 24 21 20 18 7 3 6 9 17
4 5 4 5 3 3 1 0 1 4 4 5 7 6 9 4 8 16 13 3 6 24 30 33 34 34 36 35 32 32 31 29 30 28 26 22 21 14 12 12 13 10 13 12
2 3 2 3 3 3 3 3 4 5 4 4 4 5 6 6 13 15 11 16 15 9 6 23 29 28 29 32 32 31 28 27 27 26 25 21 15 16 13 11 10 6 14 25
6 6 3 4 3 3 5 6 6 5 3 5 5 4 2 7 11 13 15 14 13 10 8 7 8 20 24 29 31 28 28 28 26 23 18 15 15 13 5 3 8 21 21 19
6 6 3 3 3 2 7 5 3 9 4 6 9 5 11 16 22 19 16 17 16 13 12 13 16 23 25 26 27 29 27 24 21 18 15 12 10 5 4 8 14 17 19 19
6 5 3 4 3 4 5 4 6 5 1 4 7 7 16 24 24 17 13 12 11 8 10 11 16 20 23 23 27 27 25 21 18 15 13 10 1 16 8 12 14 17 19 19
8 6 5 3 4 7 7 3 8 6 1 3 9 6 9 6 3 1 14 11 14 12 13 15 20 21 25 26 26 25 22 19 16 12 2 9 16 9 8 13 16 18 20 23
4 3 5 2 3 7 7 7 5 6 6 10 15 11 6 4 8 18 16 15 17 20 23 24 25 25 24 22 20 17 13 8 0 11 19 7 11 13 15 18 20 21 23 23
7 7 3 3 3 6 6 4 7 6 15 19 16 14 14 19 22 21 18 20 21 21 23 21 22 21 17 12 6 5 1 9 18 11 9 12 13 18 19 18 20 20 21 24
1 7 6 8 5 3 3 10 22 24 23 15 15 12 14 20 22 22 22 22 22 21 20 16 14 13 10 4 1 3 6 3 5 7 11 14 16 17 17 19 21 23 24 26
1 5 4 6 2 3 19 21 22 19 17 15 12 9 7 19 22 23 23 23 21 18 16 12 8 6 6 5 4 4 6 8 11 14 15 16 18 20 20 22 25 28 29 31
6 8 7 4 3 12 11 18 22 20 16 13 11 9 14 18 23 24 24 21 18 14 12 12 12 10 8 6 8 10 10 11 13 16 18 21 23 26 29 31 32 31 30 29
5 7 5 5 20 8 10 18 21 19 16 14 12 17 17 18 25 23 21 16 15 15 12 10 9 7 5 4 5 6 9 12 15 18 21 24 27 29 30 31 34 33 33 33
Wind_Direction
158 73 181 279 26 29 343 303 291 244 210 176 217 226 210 178 171 162 168 172 178 182 184 190 193 192 190 189 191 194 193 197 199 201 204 204 204 216 234 242 231 207 206 202
31 214 211 169 79 69 324 281 269 302 240 181 167 232 211 180 180 170 170 175 182 186 188 193 195 193 195 198 195 196 201 204 205 210 209 211 226 239 237 228 203 203 209 224
174 225 239 122 28 0 287 251 291 261 337 183 120 15 165 183 198 194 187 181 183 182 183 188 193 197 200 202 204 205 206 209 211 210 212 224 227 218 200 199 202 206 221 226
219 120 178 99 86 271 296 280 233 286 25 157 56 218 252 194 200 186 202 198 191 189 186 189 194 197 204 210 212 215 216 216 213 212 215 222 217 208 203 211 209 223 234 248
255 151 158 153 212 207 248 73 229 291 99 67 327 73 268 176 185 190 207 200 195 193 191 187 192 197 204 209 212 217 211 210 216 211 209 209 211 215 206 204 220 226 226 249
200 168 179 205 210 183 298 111 40 17 34 25 261 154 264 217 206 210 184 204 203 197 193 193 194 196 199 207 212 211 214 220 216 205 210 211 218 210 214 217 225 231 223 227
314 226 345 129 355 0 130 71 357 360 16 221 294 130 245 217 247 201 201 168 205 200 198 198 193 195 203 205 201 216 214 209 195 209 208 213 217 223 233 236 227 219 218 221
182 303 176 45 159 43 351 134 151 232 214 250 258 216 257 298 238 233 238 201 160 199 206 203 199 206 210 213 211 212 205 191 202 202 205 211 213 227 218 215 206 209 207 198
184 253 320 228 210 134 179 184 178 114 319 48 256 293 335 339 6 356 146 161 178 192 202 202 205 208 217 204 204 196 191 198 203 197 201 207 217 208 203 189 192 183 208 243
199 147 215 279 311 183 161 159 134 26 235 254 294 280 236 182 240 342 183 182 175 182 190 196 200 209 203 201 192 199 205 201 204 209 216 223 229 230 226 231 227 232 236 268
143 121 268 335 212 202 188 193 185 132 143 175 208 271 225 204 192 201 210 192 181 181 185 193 200 205 207 199 205 205 194 197 204 216 226 225 215 217 213 208 240 262 277 292
193 134 182 215 139 138 120 243 178 125 238 144 155 264 260 209 216 195 208 202 196 200 204 209 213 214 208 210 209 210 211 212 216 218 215 211 209 214 229 237 274 295 292 310
170 164 54 342 350 31 193 232 195 103 78 191 143 259 293 270 243 214 206 214 212 210 208 210 208 210 212 210 209 209 206 209 206 203 205 207 213 223 244 259 263 301 280 283
138 147 160 186 204 175 212 260 183 135 120 192 212 235 259 259 228 221 213 220 223 219 214 213 211 213 214 207 207 209 211 215 216 205 206 215 224 236 247 255 229 212 296 304
126 166 166 193 205 180 122 4 280 161 193 152 256 210 250 289 252 220 216 188 218 224 222 219 216 217 214 207 204 210 212 207 208 214 212 219 224 225 176 195 216 265 282 296
72 217 171 208 33 55 171 242 277 240 200 222 237 269 316 103 83 77 106 108 108 106 195 232 227 221 211 207 203 200 199 197 205 206 206 206 200 186 208 233 284 269 270 281
144 135 108 242 342 24 340 226 210 228 243 187 199 188 256 58 63 64 86 93 86 90 103 104 180 207 199 193 198 198 195 193 188 188 185 179 188 208 225 169 262 274 283 279
133 109 102 187 32 348 241 278 161 113 20 61 97 108 110 109 89 78 75 92 95 103 114 155 172 182 190 192 190 183 177 175 181 178 175 175 183 175 299 314 275 276 278 289
133 121 103 138 189 290 296 202 178 135 10 332 130 141 135 118 94 54 79 97 96 105 123 140 166 181 180 177 171 172 167 172 173 165 160 145 355 316 285 271 275 287 290 290
71 60 122 137 149 205 237 254 122 109 166 180 130 137 154 169 81 235 115 128 134 138 141 150 153 160 163 156 165 170 163 166 162 155 162 294 296 285 293 297 294 293 290 292
71 21 145 129 196 285 245 225 125 119 222 146 129 127 129 120 141 146 146 140 142 142 141 144 147 148 148 153 164 155 147 142 228 306 303 273 300 298 303 303 298 294 294 291
156 142 166 95 65 275 211 111 158 175 128 125 115 113 114 122 140 149 148 143 143 143 141 143 139 129 126 125 138 137 299 305 294 276 283 288 299 306 305 301 298 297 298 296
140 173 172 173 212 261 180 140 135 139 134 130 127 123 119 145 153 151 144 142 138 134 129 125 123 127 129 133 256 282 294 287 287 298 307 309 307 307 304 303 303 300 298 296
302 144 130 113 341 63 118 123 136 147 141 136 136 141 155 153 160 152 144 134 127 123 121 121 121 113 99 81 65 32 356 334 322 317 316 318 316 314 311 307 306 304 300 298
198 142 119 75 61 95 115 133 142 134 135 137 129 132 149 162 154 147 135 131 124 118 114 111 104 94 75 42 15 360 345 332 325 320 317 315 314 312 309 305 303 303 302 298
191 167 147 196 185 146 150 148 149 140 134 129 137 130 135 150 144 144 131 123 119 115 109 101 88 76 52 16 344 321 314 312 308 305 303 302 301 300 299 298 298 297 296 295
Height
1501 1507 1511 1504 1506 1506 1506 1506 1510 1501 1494 1500 1498 1499 1498 1499 1503 1507 1507 1510 1514 1518 1521 1524 1525 1528 1532 1534 1536 1540 1542 1546 1547 1549 1552 1555 1556 1558 1559 1560 1562 1564 1564 1565
1505 1508 1499 1496 1501 1507 1508 1507 1501 1493 1484 1494 1498 1500 1496 1497 1499 1499 1502 1505 1510 1516 1520 1523 1525 1527 1529 1531 1535 1538 1541 1543 1545 1549 1551 1553 1555 1556 1557 1559 1561 1562 1563 1563
1506 1500 1496 1499 1503 1507 1504 1507 1502 1498 1490 1493 1496 1502 1498 1498 1499 1502 1503 1501 1504 1507 1512 1517 1521 1524 1527 1530 1533 1536 1537 1540 1544 1547 1549 1550 1551 1553 1554 1556 1558 1559 1560 1561
1500 1496 1498 1500 1503 1502 1506 1491 1495 1495 1498 1507 1494 1523 1502 1497 1497 1499 1499 1502 1502 1505 1508 1511 1514 1518 1521 1525 1529 1532 1535 1539 1542 1544 1546 1547 1548 1548 1551 1554 1556 1557 1558 1558
1499 1498 1498 1499 1497 1495 1499 1494 1494 1494 1500 1500 1500 1512 1503 1493 1496 1495 1491 1494 1497 1499 1503 1504 1506 1509 1514 1520 1524 1528 1533 1537 1540 1542 1544 1545 1546 1548 1551 1553 1554 1554 1555 1555
1492 1491 1491 1491 1490 1493 1490 1494 1499 1502 1506 1521 1499 1510 1506 1496 1485 1478 1482 1487 1492 1497 1502 1503 1504 1509 1515 1519 1523 1528 1530 1533 1536 1538 1540 1542 1544 1546 1549 1549 1550 1551 1551 1551
1494 1492 1487 1487 1491 1488 1494 1504 1529 1533 1539 1531 1499 1509 1494 1480 1476 1476 1478 1483 1488 1493 1498 1500 1504 1507 1512 1515 1518 1521 1525 1528 1532 1535 1538 1540 1542 1544 1546 1547 1548 1549 1547 1547
1507 1510 1490 1486 1491 1496 1499 1500 1528 1524 1541 1528 1498 1507 1493 1473 1468 1470 1475 1480 1481 1490 1495 1498 1502 1505 1509 1513 1517 1518 1521 1526 1530 1533 1535 1539 1541 1543 1545 1545 1546 1546 1547 1548
1504 1502 1491 1489 1489 1489 1497 1505 1498 1514 1523 1538 1512 1491 1482 1475 1472 1471 1475 1477 1480 1486 1491 1496 1499 1504 1507 1510 1514 1517 1520 1524 1528 1531 1535 1537 1539 1540 1542 1543 1544 1541 1545 1543
1490 1503 1492 1488 1484 1484 1488 1488 1507 1514 1521 1521 1513 1503 1500 1483 1478 1476 1476 1476 1480 1485 1490 1495 1499 1502 1505 1508 1512 1516 1518 1521 1525 1529 1532 1534 1535 1537 1538 1538 1537 1540 1537 1540
1484 1493 1498 1491 1488 1486 1490 1492 1492 1499 1514 1523 1534 1512 1482 1480 1477 1476 1475 1475 1478 1483 1488 1492 1496 1499 1502 1505 1508 1511 1515 1518 1522 1526 1528 1529 1529 1530 1532 1530 1536 1534 1533 1533
1476 1492 1506 1489 1478 1478 1483 1488 1489 1519 1507 1515 1527 1511 1474 1474 1473 1473 1475 1476 1478 1481 1484 1486 1489 1493 1497 1500 1504 1506 1509 1511 1514 1516 1519 1521 1522 1526 1527 1528 1530 1527 1531 1529
1471 1488 1508 1498 1484 1478 1484 1479 1480 1489 1502 1507 1528 1510 1472 1472 1474 1473 1473 1474 1476 1477 1480 1482 1484 1487 1490 1493 1499 1502 1504 1509 1511 1512 1514 1516 1517 1521 1525 1523 1524 1524 1530 1529
1462 1478 1489 1503 1489 1481 1482 1475 1474 1486 1514 1502 1504 1486 1475 1471 1471 1469 1470 1471 1472 1474 1476 1479 1481 1484 1487 1492 1494 1496 1503 1505 1511 1512 1513 1515 1515 1517 1516 1519 1524 1525 1525 1526
1465 1477 1475 1476 1475 1474 1474 1474 1474 1478 1483 1495 1486 1486 1472 1468 1465 1464 1467 1470 1470 1473 1475 1477 1480 1482 1486 1489 1492 1496 1499 1503 1505 1508 1510 1511 1511 1513 1515 1518 1517 1519 1522 1522
1462 1476 1473 1477 1478 1476 1478 1474 1475 1475 1473 1475 1475 1478 1470 1468 1468 1467 1468 1469 1472 1473 1474 1476 1478 1481 1483 1486 1489 1493 1497 1502 1503 1505 1506 1507 1511 1512 1512 1515 1515 1516 1516 1515
1466 1475 1491 1490 1487 1482 1496 1477 1473 1469 1468 1469 1478 1475 1472 1472 1472 1473 1472 1472 1474 1475 1476 1476 1477 1480 1483 1487 1489 1492 1495 1498 1502 1504 1506 1509 1509 1509 1510 1510 1512 1512 1511 1510
1467 1476 1491 1501 1497 1510 1474 1463 1463 1470 1472 1468 1471 1474 1472 1474 1477 1478 1478 1478 1478 1479 1478 1479 1479 1481 1484 1486 1488 1491 1495 1500 1503 1505 1506 1507 1506 1505 1507 1507 1507 1506 1506 1506
1454 1475 1492 1500 1503 1486 1468 1463 1466 1468 1478 1473 1473 1475 1475 1475 1476 1481 1481 1480 1480 1479 1480 1480 1481 1482 1484 1486 1490 1492 1496 1499 1502 1504 1505 1505 1505 1505 1503 1503 1503 1503 1502 1501
1458 1465 1479 1500 1500 1504 1472 1459 1458 1460 1487 1474 1472 1473 1474 1474 1484 1486 1482 1481 1480 1480 1481 1482 1483 1484 1486 1489 1492 1493 1496 1499 1501 1503 1504 1504 1502 1502 1501 1500 1499 1498 1497 1495
1477 1485 1488 1508 1501 1486 1461 1457 1458 1479 1483 1470 1470 1471 1472 1474 1476 1480 1480 1480 1480 1481 1482 1483 1485 1486 1489 1493 1495 1497 1499 1501 1502 1502 1500 1500 1500 1499 1497 1496 1495 1494 1492 1489
1462 1479 1492 1495 1500 1484 1454 1456 1465 1465 1466 1467 1469 1471 1472 1474 1476 1478 1478 1479 1481 1482 1484 1487 1488 1491 1495 1498 1500 1500 1501 1500 1499 1499 1498 1498 1496 1495 1493 1492 1491 1489 1487 1484
1458 1451 1465 1468 1470 1455 1453 1452 1456 1459 1461 1466 1467 1470 1471 1473 1475 1478 1479 1481 1483 1485 1488 1491 1492 1494 1497 1498 1498 1498 1498 1498 1497 1496 1495 1494 1492 1491 1489 1487 1485 1483 1481 1477
1439 1438 1447 1456 1460 1458 1455 1456 1457 1460 1461 1464 1467 1469 1470 1471 1475 1477 1480 1484 1486 1489 1490 1492 1493 1494 1495 1497 1497 1497 1496 1495 1494 1493 1491 1490 1488 1487 1485 1482 1480 1476 1473 1470
1433 1435 1443 1459 1461 1460 1459 1458 1458 1460 1462 1464 1466 1467 1468 1470 1475 1478 1482 1486 1488 1490 1491 1493 1493 1494 1495 1496 1496 1495 1494 1493 1492 1491 1489 1487 1484 1481 1478 1475 1472 1469 1465 1462
1424 1428 1439 1449 1442 1447 1455 1458 1460 1460 1462 1464 1465 1467 1470 1473 1475 1480 1484 1487 1489 1491 1492 1493 1493 1494 1495 1495 1494 1494 1492 1491 1489 1487 1484 1481 1477 1474 1470 1466 1460 1459 1456 1453